Location: Cadeilhan
(42.8161°N, 0.3161°E)
Time: 04:01:14
(UTC+00:00)

Daily predictions for brighter satellites

Satellite Brightness Start Highest point End
(mag) Time Altitude Azimuth Time Altitude Azimuth Time Altitude Azimuth
ATLAS CENTAUR R/B 4.0 03:46:18 19° NE 03:46:18 19° NE 03:47:34 10° NE
Cosmos 2237 Rocket 4.0 03:48:41 22° N 03:48:41 22° N 03:50:39 10° NNE
Lacrosse 5 3.7 03:47:37 27° NE 03:47:37 27° NE 03:51:17 10° E
NOSS 3-1 (C) 3.9 03:53:58 84° SSW 03:53:58 84° SSW 04:02:34 10° SSE
BREEZE-M DEB (TANK) 4.4 03:54:29 51° NNW 03:54:37 51° NNW 03:59:23 10° ENE
CZ-4C R/B 3.8 04:02:10 26° N 04:02:10 26° N 04:05:28 10° NNE
CZ-2C R/B 3.4 03:55:01 10° NNE 03:59:16 47° ENE 03:59:16 47° ENE
Meteor 2-10 Rocket 4.3 04:03:59 47° NE 04:03:59 47° NE 04:07:48 10° NNE
Cosmos 1934 Rocket 3.8 04:10:41 10° N 04:17:00 84° W 04:23:21 10° S
Cosmos 1943 Rocket 3.4 04:13:11 12° N 04:17:59 39° ENE 04:23:06 10° SE
USA 215 4.2 04:16:34 10° NE 04:22:09 31° NNW 04:22:54 31° NNW
Cosmos 2297 4.2 04:26:08 46° S 04:26:08 46° S 04:30:03 10° SSE
SL-16 R/B 2.3 04:28:21 58° NNW 04:28:21 58° NNW 04:33:16 10° NNE
Cosmos 2221 3.9 04:28:28 10° SSE 04:32:24 38° E 04:36:23 10° NNE
Cosmos 1605 Rocket 3.8 04:32:56 10° N 04:39:12 86° W 04:45:20 10° S
USA 229 DEB 4.1 04:41:12 46° WSW 04:41:12 46° WSW 04:48:21 10° S
USA 229 4.1 04:41:15 46° WSW 04:41:18 46° WSW 04:48:27 10° S
Cosmos 2369 Rocket 3.1 04:36:52 10° NNW 04:42:26 49° ENE 04:47:56 10° SE
NOSS 3-1 (A) 4.1 04:44:10 30° NW 04:48:22 63° WSW 04:56:56 10° SSE
Cosmos 1943 4.3 04:44:50 10° S 04:50:05 43° ESE 04:55:22 10° NE
Meteor PRIRODA 4.1 04:48:58 10° NNE 04:52:38 59° E 04:54:56 21° S
USA 267 4.3 04:50:21 10° S 04:54:32 25° SW 04:54:32 25° SW
Meteor 2-3 Rocket 3.7 04:52:57 10° N 04:58:44 86° W 05:04:32 10° S
Cosmos 1992 Rocket 4.1 04:59:41 47° WSW 04:59:41 47° WSW 05:04:38 10° S
Cosmos 1727 Rocket 3.9 04:57:56 10° S 05:04:08 83° W 05:10:21 10° N
Cosmos 1633 4.3 05:03:51 10° N 05:07:13 34° ENE 05:10:34 10° SE
Cosmos 1484 Rocket 2.7 05:03:45 10° N 05:07:42 80° WNW 05:11:06 14° SSW
Cosmos 2251 Rocket 4.2 05:08:58 33° WNW 05:08:58 33° WNW 05:13:38 10° N
SKYMED 2 3.6 05:06:38 10° SSE 05:10:58 81° ENE 05:15:19 10° N
Cosmos 2173 Rocket 4.3 05:08:40 10° N 05:14:58 69° E 05:21:08 10° SSE
Cosmos 1500 Rocket 3.4 05:15:12 10° NNW 05:19:38 71° W 05:24:00 10° S
CZ-4B R/B 2.9 05:16:54 10° N 05:20:19 41° WNW 05:20:19 41° WNW
Meteor 2-2 Rocket 4.4 05:15:30 10° S 05:21:31 85° E 05:27:35 10° N
ATLAS CENTAUR R/B 3.2 05:22:30 19° NW 05:22:30 19° NW 05:25:36 10° N
Cosmos 292 Rocket 4.4 05:22:39 31° WSW 05:22:39 31° WSW 05:26:41 10° SSW
PSLV R/B 3.5 05:18:55 10° N 05:22:40 82° WNW 05:26:27 10° SSW
Cosmos 1238 Rocket 4.5 05:18:08 10° N 05:24:12 55° ENE 05:29:21 10° SSE
STARLINK-1103 4.5 05:21:25 14° SSW 05:24:36 46° SE 05:28:27 10° ENE
Okean O Rocket 2.9 05:21:13 10° NNE 05:25:24 43° E 05:29:31 10° S
Meteor 1-27 4.2 05:20:20 10° SSW 05:25:48 59° WNW 05:31:19 10° N
Cosmos 2100 Rocket 3.9 05:22:36 10° N 05:28:52 87° W 05:35:02 10° S
STARLINK-1101 4.3 05:25:53 14° SSW 05:29:12 50° SE 05:33:07 10° ENE
STARLINK-1128 4.2 05:26:06 14° SSW 05:29:18 51° SE 05:33:10 10° ENE
Lacrosse 5 1.8 05:26:51 20° NW 05:30:21 76° SW 05:35:24 10° SE
Cosmos 2237 Rocket 4.2 05:30:32 10° NW 05:30:32 10° NW 05:31:33 10° NNW
Cosmos 1743 Rocket 3.7 05:27:15 10° NNW 05:31:25 46° W 05:35:33 10° SSW
Cosmos 2084 4.4 05:27:20 10° SSW 05:31:41 50° ESE 05:36:02 10° NE
H-2A R/B 3.3 05:28:03 10° N 05:31:58 32° WNW 05:34:00 22° WSW
STARLINK-1113 4.1 05:30:22 13° SW 05:33:44 56° SE 05:37:38 10° ENE
STARLINK-1102 4.2 05:30:20 13° SW 05:33:50 55° SE 05:37:47 10° ENE
STARLINK-1118 2.2 05:33:40 52° WSW 05:34:11 79° NW 05:36:44 10° NE
GEOS 3 Rocket 4.2 05:30:16 10° NNE 05:35:12 40° NW 05:38:29 19° WSW
Meteor 1-31 Rocket 4.0 05:32:17 10° NNW 05:34:48 23° NW 05:34:48 23° NW
STARLINK-1070 2.6 05:35:37 33° WSW 05:36:46 82° NNW 05:39:42 10° NE
Cosmos 1000 Rocket 4.4 05:31:01 10° S 05:37:11 84° W 05:43:26 10° N
STARLINK-1124 2.6 05:36:35 36° WSW 05:37:33 65° NW 05:40:29 10° NE
STARLINK-1066 2.5 05:36:40 32° WSW 05:37:51 80° NW 05:40:47 10° NE
CZ-2C R/B 3.7 05:34:05 10° NNW 05:37:54 21° WNW 05:38:39 21° WNW
STARLINK-1081 2.5 05:36:55 32° WSW 05:38:06 79° NW 05:41:02 10° NE
STARLINK-1119 3.9 05:34:35 12° SW 05:38:07 61° SE 05:42:04 10° ENE
STARLINK-1069 2.6 05:37:20 31° WSW 05:38:32 78° NW 05:41:29 10° NE
STARLINK-1111 4.0 05:34:53 12° SW 05:38:33 60° SE 05:42:31 10° ENE
Cosmos 1023 Rocket 4.5 05:33:24 10° SSW 05:38:40 87° WNW 05:43:59 10° NNE
STARLINK-1085 2.6 05:37:34 31° WSW 05:38:46 78° NW 05:41:43 10° NE
ADEOS Rocket 3.7 05:32:48 10° SSE 05:38:52 63° ENE 05:45:39 10° N
STARLINK-1086 2.6 05:37:46 31° WSW 05:39:00 78° NW 05:41:56 10° NE
STARLINK-1095 2.6 05:37:59 31° WSW 05:39:13 77° NW 05:42:09 10° NE
STARLINK-1077 2.6 05:38:12 30° WSW 05:39:28 77° NNW 05:42:23 10° NE
STARLINK-1075 2.6 05:38:25 30° WSW 05:39:40 76° NNW 05:42:36 10° NE
STARLINK-1093 2.6 05:38:38 30° WSW 05:39:54 76° NW 05:42:49 10° NE
Cosmos 2061 Rocket 4.2 05:33:39 10° N 05:39:58 75° E 05:46:10 10° SSE
STARLINK-1074 2.6 05:38:51 30° WSW 05:40:07 76° NW 05:43:02 10° NE
STARLINK-1087 2.6 05:39:04 29° WSW 05:40:22 75° NW 05:43:18 10° NE
STARLINK-1088 2.6 05:39:17 29° WSW 05:40:34 75° NW 05:43:30 10° NE
STARLINK-1115 2.6 05:39:29 29° WSW 05:40:47 74° NW 05:43:43 10° NE
STARLINK-1076 2.6 05:39:43 29° WSW 05:41:01 74° NW 05:43:57 10° NE
STARLINK-1092 2.6 05:39:56 29° WSW 05:41:15 74° NW 05:44:10 10° NE
STARLINK-1080 2.6 05:40:09 29° WSW 05:41:28 73° NW 05:44:23 10° NE
STARLINK-1090 2.6 05:40:22 28° WSW 05:41:41 73° NW 05:44:37 10° NE
STARLINK-1089 2.6 05:40:35 28° WSW 05:41:55 72° NW 05:44:51 10° NE
STARLINK-1107 2.6 05:40:47 28° WSW 05:42:08 72° NW 05:45:03 10° NE
STARLINK-1109 2.6 05:40:59 28° WSW 05:42:21 72° NW 05:45:16 10° NE
STARLINK-1091 2.6 05:41:14 28° WSW 05:42:37 71° NW 05:45:32 10° NE
STARLINK-1114 3.8 05:38:54 11° SW 05:42:37 66° SE 05:46:34 10° ENE
STARLINK-1072 2.6 05:41:27 27° WSW 05:42:49 71° NW 05:45:45 10° NE
STARLINK-1096 2.6 05:41:41 27° WSW 05:43:03 70° NW 05:45:58 10° NE
STARLINK-1073 3.9 05:39:21 11° SW 05:43:11 66° SE 05:47:12 10° ENE
Cosmos 1842 Rocket 4.5 05:40:14 14° SW 05:43:12 27° WNW 05:47:04 10° NNW
STARLINK-1079 2.6 05:41:53 27° WSW 05:43:16 70° NW 05:46:12 10° NE
STARLINK-1116 2.6 05:42:06 27° WSW 05:43:30 70° NW 05:46:26 10° NE
STARLINK-1094 2.6 05:42:31 26° WSW 05:43:57 69° NW 05:46:52 10° NE
STARLINK-1117 2.6 05:42:44 26° WSW 05:44:10 69° NW 05:47:05 10° NE
STARLINK-1078 2.6 05:42:57 26° WSW 05:44:24 68° NW 05:47:19 10° NE
STARLINK-1108 2.6 05:43:09 26° WSW 05:44:37 68° NW 05:47:32 10° NE
STARLINK-1071 2.6 05:43:24 26° WSW 05:44:51 67° NNW 05:47:46 10° NE
STARLINK-1110 2.6 05:43:37 26° WSW 05:45:05 67° NW 05:47:59 10° NE
Cosmos 1459 Rocket 3.9 05:39:05 10° NNW 05:45:13 72° W 05:51:26 10° S
STARLINK-1122 2.6 05:44:02 25° WSW 05:45:31 66° NW 05:48:26 10° NE
STARLINK-1126 2.6 05:44:15 25° WSW 05:45:45 66° NW 05:48:40 10° NE
STARLINK-1082 2.6 05:44:28 25° WSW 05:45:58 66° NW 05:48:53 10° NE
STARLINK-1100 2.6 05:44:41 25° WSW 05:46:11 65° NW 05:49:06 10° NE
STARLINK-1083 2.7 05:44:54 25° WSW 05:46:25 65° NW 05:49:20 10° NE
STARLINK-1125 2.7 05:45:08 24° WSW 05:46:40 65° NW 05:49:34 10° NE
STARLINK-1130 (DARKSAT) 3.7 05:43:06 11° SW 05:46:58 72° SE 05:50:57 10° ENE
BREEZE M DEB (TANK) 4.3 05:44:47 15° NW 05:47:25 46° NNE 05:56:16 10° E
STARLINK-1121 3.7 05:43:46 10° SW 05:47:47 72° SE 05:51:49 10° ENE
Shenzhou-11 Module 2.4 05:46:59 19° SW 05:48:32 45° SSE 05:51:06 10° E
METEOR-M 4.2 05:44:10 10° N 05:49:23 56° WNW 05:54:35 10° SSW
CZ-4C R/B 4.3 05:47:50 10° NW 05:50:37 13° NNW 05:53:37 10° NNE
STARLINK-1084 3.6 05:47:26 10° SW 05:51:26 78° SE 05:55:25 10° NE
Cosmos 1400 Rocket 3.3 05:47:59 10° S 05:51:56 64° E 05:55:58 10° NNE
STARLINK-1106 3.6 05:48:28 10° SW 05:52:30 78° SE 05:56:33 10° NE
Cosmos 1954 Rocket 4.1 05:47:58 10° SSW 05:53:17 84° ESE 05:58:39 10° NNE
Cosmos 1725 Rocket 4.3 05:47:21 10° N 05:53:38 75° E 05:59:55 10° SSE
Cosmos 1869 3.8 05:50:13 10° SW 05:53:56 37° WNW 05:57:40 10° N
Cosmos 2123 Rocket 4.2 05:48:34 10° S 05:54:53 82° E 06:01:13 10° N
Cosmos 407 Rocket 3.8 05:50:04 10° SW 05:55:11 47° WNW 06:00:19 10° N
STARLINK-1112 3.6 05:53:14 10° SW 05:57:16 85° SE 06:01:20 10° NE
ALOS 2.7 05:53:53 10° N 05:58:13 38° WNW 06:02:30 10° SW
COSMO-SKYMED 1 3.3 05:55:18 10° SSW 05:59:07 30° W 06:02:57 10° NW
Cosmos 1140 Rocket 3.5 05:53:58 10° SSW 05:59:08 60° WNW 06:04:21 10° NNE
USA 116 3.4 05:56:21 10° S 05:59:26 44° W 06:02:27 10° NNW
Cosmos 921 Rocket 3.2 05:57:03 10° NNW 06:01:21 49° WSW 06:05:31 10° S
Cosmos 1943 Rocket 2.9 05:56:48 10° NW 06:01:34 30° WSW 06:06:16 10° SSW
Cosmos 1802 Rocket 4.1 05:56:30 10° NNW 06:02:52 64° W 06:09:11 10° S
Cosmos 1633 Rocket 3.4 06:02:53 10° N 06:07:16 71° E 06:11:37 10° SSE
Cosmos 1666 Rocket 3.6 06:04:29 10° N 06:08:57 90° NE 06:13:20 10° S
Cosmos 2221 3.9 06:07:08 10° WSW 06:10:07 18° WNW 06:13:08 10° NNW
SL-08 R/B 4.4 06:06:44 10° N 06:12:52 75° W 06:18:55 10° S
SL-16 R/B 4.0 06:10:30 10° WNW 06:12:53 13° NW 06:15:16 10° NNW
Cosmos 1864 Rocket 4.4 06:07:32 10° N 06:13:40 77° W 06:19:48 10° S
Helios 1A Rocket 2.9 06:10:24 10° NNE 06:14:34 81° WNW 06:18:41 10° SSW
Aureole 2 Rocket 3.5 06:15:45 10° NW 06:18:06 20° WSW 06:20:29 10° SSW
FENGYUN 3A 4.4 06:16:02 10° N 06:20:43 31° WNW 06:25:25 10° SW
Iridium 51 4.2 06:19:00 10° S 06:23:03 85° W 06:26:48 10° N
H-2A R/B 2.6 06:19:55 10° N 06:23:41 73° WNW 06:27:22 10° SSW
Cosmos 2369 Rocket 3.2 06:21:32 10° NW 06:26:07 25° WSW 06:30:40 10° SSW
